ACA817 LIPZ-CYYZ

Flight info

Callsign ACA817
Flight time N/A
Altitude 18000
Route ROKIB Z906 NAXAV L12 UNIMI/N0458F360 L12 MOGTI DCT KPT L608 KUNOD DCT LIRSU/N0462F380 L608 DENUT L610 GILDA L620 SAM N19 ADKIK DCT MOPAT DCT DOGAL/M081F390 NATC NEEKO/N0473F400 N622E TAFFY DCT VILRO DCT SAVEX Q806 TUKIR RAGID6
Aircraft A333/H-SDE3GHIJ2J3J5M1RVWXY/LB2D1

Departure

Time 2026-05-04 12:41
Airport Venice Marco Polo Airport (LIPZ)

Arrival

Time N/A
Airport Toronto Pearson International Airport (CYYZ)
Time Latitude Longitude Altitude Speed Heading
2026-05-04 12:17 45.50867 12.34543 19 ft 0 kts 88°
2026-05-04 12:31 45.50866 12.34542 19 ft 1 kts 88°
2026-05-04 12:31 45.50867 12.34510 19 ft 2 kts 93°
2026-05-04 12:31 45.50866 12.34480 23 ft 4 kts 57°
2026-05-04 12:32 45.50850 12.34455 22 ft 2 kts 45°
2026-05-04 12:32 45.50840 12.34418 24 ft 3 kts 134°
2026-05-04 12:32 45.50858 12.34391 23 ft 3 kts 132°
2026-05-04 12:33 45.50861 12.34386 24 ft 0 kts 132°
2026-05-04 12:35 45.50843 12.34415 24 ft 7 kts 132°
2026-05-04 12:35 45.50794 12.34492 19 ft 14 kts 132°
2026-05-04 12:35 45.50718 12.34610 19 ft 18 kts 133°
2026-05-04 12:36 45.50634 12.34728 19 ft 16 kts 150°
2026-05-04 12:36 45.50552 12.34687 19 ft 13 kts 223°
2026-05-04 12:36 45.50488 12.34603 23 ft 13 kts 222°
2026-05-04 12:36 45.50423 12.34518 20 ft 13 kts 222°
2026-05-04 12:37 45.50356 12.34431 21 ft 13 kts 222°
2026-05-04 12:37 45.50285 12.34363 20 ft 12 kts 193°
2026-05-04 12:37 45.50199 12.34361 20 ft 13 kts 178°
2026-05-04 12:37 45.50111 12.34322 21 ft 14 kts 217°
2026-05-04 12:38 45.50036 12.34224 18 ft 16 kts 223°
2026-05-04 12:38 45.49949 12.34111 18 ft 18 kts 221°
2026-05-04 12:38 45.49856 12.33995 18 ft 18 kts 221°
2026-05-04 12:38 45.49760 12.33872 18 ft 19 kts 222°
2026-05-04 12:39 45.49665 12.33749 22 ft 19 kts 222°
2026-05-04 12:39 45.49568 12.33625 20 ft 19 kts 220°
2026-05-04 12:39 45.49473 12.33659 20 ft 15 kts 134°
2026-05-04 12:39 45.49429 12.33783 18 ft 14 kts 68°
2026-05-04 12:40 45.49493 12.33877 18 ft 17 kts 43°
2026-05-04 12:40 45.49706 12.34152 16 ft 70 kts 42°
2026-05-04 12:40 45.50210 12.34797 18 ft 124 kts 41°
2026-05-04 12:40 45.50957 12.35796 104 ft 163 kts 47°
2026-05-04 12:41 45.51755 12.36943 708 ft 162 kts 48°
2026-05-04 12:41 45.52548 12.38080 1359 ft 166 kts 45°
2026-05-04 12:41 45.53336 12.39305 2031 ft 168 kts 59°
2026-05-04 12:41 45.53662 12.40968 2454 ft 185 kts 91°
2026-05-04 12:42 45.53533 12.42862 2759 ft 203 kts 100°
2026-05-04 12:42 45.53293 12.44893 3299 ft 212 kts 101°
2026-05-04 12:42 45.53048 12.46982 3883 ft 215 kts 100°
2026-05-04 12:42 45.52810 12.49114 4462 ft 219 kts 100°
2026-05-04 12:43 45.52416 12.51213 5023 ft 220 kts 118°
2026-05-04 12:43 45.51390 12.52782 5604 ft 218 kts 154°
2026-05-04 12:43 45.49940 12.53163 6243 ft 213 kts 189°
2026-05-04 12:43 45.48521 12.52603 6892 ft 212 kts 202°
2026-05-04 12:44 45.47240 12.51587 7482 ft 212 kts 222°
2026-05-04 12:44 45.46411 12.49873 8102 ft 215 kts 250°
2026-05-04 12:44 45.46304 12.47696 8413 ft 236 kts 278°
2026-05-04 12:44 45.46747 12.45344 8647 ft 255 kts 285°
2026-05-04 12:45 45.47331 12.42854 8893 ft 273 kts 286°
2026-05-04 12:45 45.47944 12.40238 9451 ft 280 kts 286°
2026-05-04 12:45 45.48548 12.37592 10124 ft 283 kts 285°
2026-05-04 12:45 45.49149 12.34899 10484 ft 296 kts 285°
2026-05-04 12:46 45.49784 12.32015 10731 ft 314 kts 285°
2026-05-04 12:46 45.50451 12.28958 10959 ft 331 kts 285°
2026-05-04 12:46 45.51148 12.25753 11285 ft 344 kts 285°
2026-05-04 12:46 45.51863 12.22461 11807 ft 350 kts 285°
2026-05-04 12:47 45.52591 12.19127 12369 ft 354 kts 285°
2026-05-04 12:47 45.53321 12.15799 12952 ft 358 kts 285°
2026-05-04 12:47 45.54071 12.12371 13523 ft 363 kts 285°
2026-05-04 12:47 45.54827 12.08907 14073 ft 368 kts 285°
2026-05-04 12:48 45.55584 12.05438 14604 ft 371 kts 285°
2026-05-04 12:48 45.56350 12.01915 15168 ft 373 kts 285°
2026-05-04 12:48 45.57140 11.98381 15734 ft 375 kts 288°
2026-05-04 12:48 45.58340 11.95032 16285 ft 382 kts 304°
2026-05-04 12:49 45.60244 11.92349 16818 ft 389 kts 324°
2026-05-04 12:49 45.62595 11.90461 17355 ft 394 kts 332°
2026-05-04 12:49 45.65079 11.88769 17881 ft 397 kts 333°
2026-05-04 12:49 45.67588 11.87090 18398 ft 399 kts 333°
2026-05-04 12:50 45.70114 11.85389 18842 ft 402 kts 333°
2026-05-04 12:50 45.72639 11.83673 19289 ft 404 kts 332°
2026-05-04 12:50 45.75188 11.81926 19754 ft 406 kts 332°
2026-05-04 12:50 45.77744 11.80166 20217 ft 408 kts 332°
2026-05-04 12:51 45.80277 11.78417 20646 ft 410 kts 332°
2026-05-04 12:51 45.82861 11.76629 21108 ft 412 kts 332°
2026-05-04 12:51 45.85453 11.74834 21553 ft 415 kts 332°
2026-05-04 12:51 45.88064 11.73027 22021 ft 417 kts 332°
2026-05-04 12:52 45.90656 11.71235 22458 ft 419 kts 332°
2026-05-04 12:52 45.93287 11.69412 22872 ft 421 kts 332°
2026-05-04 12:52 45.95937 11.67575 23290 ft 423 kts 332°
2026-05-04 12:52 45.98600 11.65726 23675 ft 425 kts 332°
2026-05-04 12:53 46.01244 11.63891 24014 ft 428 kts 332°
2026-05-04 12:53 46.03935 11.62024 24341 ft 431 kts 332°
2026-05-04 12:53 46.06647 11.60137 24635 ft 433 kts 332°
2026-05-04 12:53 46.09364 11.58243 24985 ft 435 kts 332°
2026-05-04 12:54 46.12092 11.56339 25338 ft 436 kts 332°
2026-05-04 12:54 46.14806 11.54444 25666 ft 438 kts 332°
2026-05-04 12:54 46.17554 11.52522 26017 ft 440 kts 332°
2026-05-04 12:54 46.20328 11.50580 26345 ft 442 kts 332°
2026-05-04 12:55 46.23102 11.48637 26648 ft 444 kts 332°
2026-05-04 12:55 46.25893 11.46676 26960 ft 446 kts 332°
2026-05-04 12:55 46.28658 11.44735 27269 ft 447 kts 332°
2026-05-04 12:55 46.31467 11.42761 27600 ft 449 kts 332°
2026-05-04 12:56 46.34289 11.40775 27909 ft 451 kts 332°
2026-05-04 12:56 46.37092 11.38800 28200 ft 453 kts 332°
2026-05-04 12:56 46.39931 11.36797 28529 ft 455 kts 332°
2026-05-04 12:56 46.42782 11.34783 28772 ft 457 kts 332°
2026-05-04 12:57 46.45655 11.32752 29052 ft 460 kts 332°
2026-05-04 12:57 46.48557 11.30773 29326 ft 462 kts 333°
2026-05-04 12:57 46.51504 11.28848 29621 ft 464 kts 334°
2026-05-04 12:57 46.54435 11.26973 29904 ft 466 kts 334°
2026-05-04 12:58 46.57421 11.25074 30196 ft 468 kts 334°
2026-05-04 12:58 46.60419 11.23163 30457 ft 470 kts 334°
2026-05-04 12:58 46.63420 11.21241 30735 ft 472 kts 334°
2026-05-04 12:58 46.66405 11.19318 30957 ft 474 kts 333°
2026-05-04 12:59 46.69424 11.17366 31183 ft 476 kts 334°
2026-05-04 12:59 46.72464 11.15394 31427 ft 478 kts 334°
2026-05-04 12:59 46.75510 11.13416 31729 ft 478 kts 334°
2026-05-04 12:59 46.78555 11.11435 32050 ft 478 kts 333°
2026-05-04 13:00 46.81599 11.09453 32391 ft 477 kts 333°
2026-05-04 13:00 46.84596 11.07498 32719 ft 477 kts 333°
2026-05-04 13:00 46.87630 11.05506 32991 ft 477 kts 333°
2026-05-04 13:00 46.90664 11.03485 33281 ft 477 kts 333°
2026-05-04 13:01 46.93648 11.01480 33561 ft 476 kts 333°
2026-05-04 13:01 46.96659 10.99472 33802 ft 477 kts 333°
2026-05-04 13:01 46.99700 10.97470 34054 ft 477 kts 333°
2026-05-04 13:01 47.02701 10.95509 34314 ft 475 kts 333°
2026-05-04 13:02 47.05723 10.93539 34585 ft 474 kts 333°
2026-05-04 13:02 47.08732 10.91576 34893 ft 471 kts 333°
2026-05-04 13:02 47.11693 10.89640 35186 ft 468 kts 333°
2026-05-04 13:02 47.14673 10.87688 35422 ft 467 kts 333°
2026-05-04 13:03 47.17642 10.85737 35672 ft 467 kts 333°
2026-05-04 13:03 47.20605 10.83788 35819 ft 466 kts 333°
2026-05-04 13:03 47.23581 10.81830 35954 ft 466 kts 333°
2026-05-04 13:04 47.29457 10.77952 35994 ft 462 kts 333°
2026-05-04 13:04 47.35317 10.74074 35991 ft 460 kts 333°
2026-05-04 13:05 47.40877 10.69582 35993 ft 457 kts 324°
2026-05-04 13:05 47.46171 10.64336 35994 ft 457 kts 322°
2026-05-04 13:06 47.51366 10.58995 35990 ft 456 kts 322°
2026-05-04 13:06 47.56576 10.53608 35992 ft 456 kts 322°
2026-05-04 13:07 47.61760 10.48255 35984 ft 456 kts 322°
2026-05-04 13:07 47.66974 10.42871 35977 ft 456 kts 322°
2026-05-04 13:08 47.72174 10.37491 35976 ft 455 kts 322°
2026-05-04 13:08 47.77248 10.31948 35973 ft 454 kts 318°
2026-05-04 13:09 47.82128 10.25989 35988 ft 453 kts 316°
2026-05-04 13:09 47.86936 10.20005 35990 ft 452 kts 317°
2026-05-04 13:10 47.91794 10.14004 35992 ft 454 kts 317°
2026-05-04 13:10 47.96650 10.08038 35991 ft 455 kts 317°
2026-05-04 13:11 48.01549 10.02019 35986 ft 455 kts 317°
2026-05-04 13:11 48.06414 9.96027 35988 ft 453 kts 317°
2026-05-04 13:12 48.11275 9.90021 35996 ft 452 kts 317°
2026-05-04 13:12 48.16106 9.84033 36004 ft 453 kts 316°
2026-05-04 13:13 48.20968 9.77993 35994 ft 454 kts 316°
2026-05-04 13:13 48.25807 9.71966 35994 ft 454 kts 316°
2026-05-04 13:14 48.30655 9.65916 35985 ft 452 kts 316°
2026-05-04 13:14 48.35245 9.59584 35982 ft 448 kts 310°
2026-05-04 13:15 48.39549 9.52780 35976 ft 448 kts 309°
2026-05-04 13:15 48.43768 9.45931 35963 ft 449 kts 308°
2026-05-04 13:16 48.48017 9.38995 35966 ft 450 kts 308°
2026-05-04 13:16 48.52270 9.32057 35995 ft 450 kts 308°
2026-05-04 13:17 48.56503 9.25141 35983 ft 450 kts 308°
2026-05-04 13:17 48.60739 9.18202 35988 ft 449 kts 308°
2026-05-04 13:18 48.64961 9.11267 35995 ft 450 kts 308°
2026-05-04 13:18 48.68495 9.05447 35992 ft 451 kts 308°
2026-05-04 13:19 48.72717 8.98481 35990 ft 451 kts 308°
2026-05-04 13:19 48.76970 8.91445 35985 ft 450 kts 308°
2026-05-04 13:20 48.81172 8.84471 35983 ft 450 kts 308°
2026-05-04 13:20 48.85407 8.77426 35986 ft 450 kts 308°
2026-05-04 13:21 48.89602 8.70427 35978 ft 451 kts 308°
2026-05-04 13:21 48.93835 8.63346 35980 ft 451 kts 308°
2026-05-04 13:22 48.98031 8.56308 35982 ft 451 kts 308°
2026-05-04 13:22 49.02252 8.49212 35982 ft 451 kts 307°
2026-05-04 13:23 49.06434 8.42161 35982 ft 450 kts 307°
2026-05-04 13:23 49.10638 8.35050 35985 ft 450 kts 307°
2026-05-04 13:24 49.14816 8.27966 35982 ft 451 kts 307°
2026-05-04 13:24 49.19010 8.20835 35982 ft 450 kts 307°
2026-05-04 13:25 49.25273 8.10149 35989 ft 450 kts 307°
2026-05-04 13:25 49.29452 8.02995 35987 ft 450 kts 307°
2026-05-04 13:26 49.33640 7.95805 35995 ft 452 kts 307°
2026-05-04 13:26 49.37806 7.88628 35997 ft 453 kts 307°
2026-05-04 13:27 49.42007 7.81377 35997 ft 453 kts 307°
2026-05-04 13:27 49.46181 7.74155 35999 ft 453 kts 307°
2026-05-04 13:28 49.50374 7.66877 36002 ft 453 kts 307°
2026-05-04 13:28 49.54522 7.59657 36003 ft 453 kts 306°
2026-05-04 13:29 49.58699 7.52364 35996 ft 454 kts 307°
2026-05-04 13:29 49.62882 7.45042 35994 ft 454 kts 306°
2026-05-04 13:30 49.67050 7.37726 35996 ft 454 kts 306°
2026-05-04 13:30 49.71193 7.30434 35995 ft 454 kts 306°
2026-05-04 13:31 49.75364 7.23070 36003 ft 454 kts 306°
2026-05-04 13:31 49.79519 7.15713 35995 ft 454 kts 306°
2026-05-04 13:32 49.83645 7.08386 35996 ft 454 kts 306°
2026-05-04 13:32 49.87800 7.00989 35990 ft 454 kts 306°
2026-05-04 13:33 49.91945 6.93587 35992 ft 454 kts 306°
2026-05-04 13:33 49.96066 6.86207 36006 ft 454 kts 306°
2026-05-04 13:34 50.00208 6.78769 36020 ft 455 kts 306°
2026-05-04 13:34 50.04339 6.71329 36008 ft 455 kts 306°
2026-05-04 13:35 50.10525 6.60153 36001 ft 455 kts 306°
2026-05-04 13:36 50.14662 6.52647 35976 ft 455 kts 306°
2026-05-04 13:36 50.18888 6.45350 35975 ft 459 kts 313°
2026-05-04 13:37 50.23727 6.38761 35988 ft 462 kts 315°
2026-05-04 13:37 50.28692 6.32311 35982 ft 464 kts 315°
2026-05-04 13:38 50.33638 6.25931 35995 ft 463 kts 315°
2026-05-04 13:38 50.38606 6.19485 35991 ft 463 kts 315°
2026-05-04 13:39 50.43527 6.13061 35992 ft 463 kts 315°
2026-05-04 13:39 50.48481 6.06568 35991 ft 463 kts 315°
2026-05-04 13:40 50.53392 6.00114 35991 ft 462 kts 315°
2026-05-04 13:40 50.58342 5.93591 35990 ft 463 kts 315°
2026-05-04 13:41 50.62906 5.86616 35991 ft 455 kts 303°
2026-05-04 13:41 50.66033 5.78112 35988 ft 442 kts 285°
2026-05-04 13:42 50.68782 5.64334 35989 ft 440 kts 282°
2026-05-04 13:42 50.70580 5.55067 35996 ft 442 kts 282°
2026-05-04 13:43 50.72436 5.45795 35992 ft 443 kts 283°
2026-05-04 13:43 50.74296 5.36549 35992 ft 444 kts 283°
2026-05-04 13:44 50.76158 5.27237 35999 ft 444 kts 282°
2026-05-04 13:44 50.77996 5.17982 35986 ft 443 kts 282°
2026-05-04 13:45 50.79835 5.08669 35986 ft 444 kts 282°
2026-05-04 13:45 50.81646 4.99369 35986 ft 445 kts 282°
2026-05-04 13:46 50.83434 4.89989 35982 ft 444 kts 282°
2026-05-04 13:46 50.85207 4.80620 35984 ft 444 kts 282°
2026-05-04 13:47 50.86968 4.71284 35968 ft 444 kts 282°
2026-05-04 13:47 50.88733 4.61884 35995 ft 446 kts 282°
2026-05-04 13:48 50.90891 4.52606 35992 ft 454 kts 293°
2026-05-04 13:48 50.93988 4.43930 35994 ft 456 kts 296°
2026-05-04 13:49 50.97297 4.35305 35991 ft 457 kts 297°
2026-05-04 13:49 51.00629 4.26691 35989 ft 457 kts 297°
2026-05-04 13:50 51.03916 4.18112 35985 ft 457 kts 296°
2026-05-04 13:50 51.07215 4.09432 35981 ft 457 kts 296°
2026-05-04 13:51 51.10477 4.00810 35980 ft 457 kts 296°
2026-05-04 13:51 51.13750 3.92128 35974 ft 457 kts 296°
2026-05-04 13:52 51.18625 3.79145 35993 ft 457 kts 296°
2026-05-04 13:53 51.21880 3.70383 35978 ft 457 kts 294°
2026-05-04 13:53 51.24169 3.61045 35986 ft 449 kts 280°
2026-05-04 13:54 51.26241 3.46547 35984 ft 448 kts 277°
2026-05-04 13:55 51.28100 3.31929 36009 ft 448 kts 277°
2026-05-04 13:55 51.29953 3.17314 35997 ft 449 kts 277°
2026-05-04 13:56 51.31198 3.07507 35998 ft 448 kts 277°
2026-05-04 13:57 51.33039 2.92884 36008 ft 448 kts 277°
2026-05-04 13:58 51.35465 2.73364 36009 ft 449 kts 277°
2026-05-04 13:58 51.37272 2.58703 35998 ft 449 kts 277°
2026-05-04 13:59 51.38474 2.48873 36012 ft 449 kts 277°
2026-05-04 14:00 51.40252 2.34185 36004 ft 449 kts 277°
2026-05-04 14:00 51.42035 2.19408 36013 ft 450 kts 277°
2026-05-04 14:01 51.43232 2.09598 36001 ft 450 kts 277°
2026-05-04 14:02 51.45011 1.94854 36001 ft 450 kts 277°
2026-05-04 14:02 51.46173 1.84965 36012 ft 451 kts 277°
2026-05-04 14:03 51.47313 1.75111 35998 ft 452 kts 277°
2026-05-04 14:03 51.48451 1.65189 36012 ft 452 kts 277°
2026-05-04 14:04 51.50143 1.50315 36017 ft 452 kts 277°
2026-05-04 14:04 51.51256 1.40449 36010 ft 452 kts 277°
2026-05-04 14:05 51.52926 1.25478 36008 ft 453 kts 277°
2026-05-04 14:06 51.54024 1.15548 36010 ft 453 kts 277°
2026-05-04 14:06 51.55118 1.05565 36010 ft 453 kts 277°
2026-05-04 14:07 51.56203 0.95580 36018 ft 453 kts 277°
2026-05-04 14:07 51.57277 0.85602 36020 ft 455 kts 277°
2026-05-04 14:08 51.58349 0.75559 36020 ft 455 kts 277°
2026-05-04 14:08 51.59408 0.65573 36021 ft 455 kts 277°
2026-05-04 14:09 51.59235 0.50545 36018 ft 446 kts 253°
2026-05-04 14:10 51.55053 0.37520 36013 ft 441 kts 227°
2026-05-04 14:10 51.50390 0.31224 36016 ft 439 kts 213°
2026-05-04 14:11 51.45696 0.24938 36016 ft 441 kts 225°
2026-05-04 14:11 51.39980 0.13360 36022 ft 443 kts 232°
2026-05-04 14:12 51.36384 0.05337 36019 ft 443 kts 233°
2026-05-04 14:13 51.31003 -0.06670 36011 ft 444 kts 232°
2026-05-04 14:13 51.27383 -0.14651 36018 ft 445 kts 232°
2026-05-04 14:14 51.23735 -0.22651 36019 ft 445 kts 232°
2026-05-04 14:14 51.18275 -0.34575 36020 ft 445 kts 232°
2026-05-04 14:15 51.10964 -0.50462 36012 ft 445 kts 232°
2026-05-04 14:16 51.05894 -0.62814 36006 ft 448 kts 244°
2026-05-04 14:17 51.03328 -0.77165 36008 ft 452 kts 255°
2026-05-04 14:18 51.01402 -0.91827 36004 ft 452 kts 256°
2026-05-04 14:19 50.98755 -1.11387 35994 ft 455 kts 255°
2026-05-04 14:19 50.97398 -1.21155 35993 ft 455 kts 255°
2026-05-04 14:20 50.96259 -1.29303 35994 ft 455 kts 255°
2026-05-04 14:20 50.94711 -1.40722 35993 ft 455 kts 256°
2026-05-04 14:21 50.93048 -1.53861 35996 ft 457 kts 257°
2026-05-04 14:21 50.91789 -1.63763 35994 ft 457 kts 257°
2026-05-04 14:22 50.90521 -1.73585 35994 ft 457 kts 256°
2026-05-04 14:22 50.89234 -1.83457 35993 ft 457 kts 256°
2026-05-04 14:23 50.87291 -1.98217 35998 ft 459 kts 257°
2026-05-04 14:24 50.85975 -2.08125 35998 ft 460 kts 256°
2026-05-04 14:24 50.84649 -2.18052 35999 ft 459 kts 256°
2026-05-04 14:25 50.83329 -2.27861 36000 ft 459 kts 256°
2026-05-04 14:25 50.81316 -2.42692 36000 ft 460 kts 256°
2026-05-04 14:26 50.80373 -2.52656 35997 ft 462 kts 267°
2026-05-04 14:26 50.81129 -2.62773 35998 ft 465 kts 282°
2026-05-04 14:27 50.82761 -2.72708 35997 ft 466 kts 284°
2026-05-04 14:27 50.84524 -2.82525 36013 ft 466 kts 285°
2026-05-04 14:28 50.86282 -2.92436 36008 ft 468 kts 285°
2026-05-04 14:28 50.87999 -3.02336 36006 ft 468 kts 284°
2026-05-04 14:29 50.91403 -3.22299 36011 ft 468 kts 284°
2026-05-04 14:30 50.93078 -3.32209 36018 ft 469 kts 284°
2026-05-04 14:31 50.95611 -3.47289 36010 ft 471 kts 284°
2026-05-04 14:32 50.98945 -3.67347 35999 ft 471 kts 284°
2026-05-04 14:32 51.00608 -3.77436 35999 ft 471 kts 284°
2026-05-04 14:33 51.02253 -3.87482 36001 ft 473 kts 284°
2026-05-04 14:33 51.03908 -3.97645 36000 ft 474 kts 284°
2026-05-04 14:34 51.05541 -4.07735 35999 ft 475 kts 284°
2026-05-04 14:34 51.07178 -4.17911 36004 ft 474 kts 284°
2026-05-04 14:35 51.08807 -4.28102 36011 ft 474 kts 284°
2026-05-04 14:35 51.10419 -4.38245 36008 ft 477 kts 284°
2026-05-04 14:36 51.12039 -4.48507 36009 ft 477 kts 284°
2026-05-04 14:36 51.13650 -4.58766 36009 ft 477 kts 284°
2026-05-04 14:37 51.15241 -4.68973 36012 ft 477 kts 284°
2026-05-04 14:37 51.16833 -4.79244 36016 ft 477 kts 284°
2026-05-04 14:38 51.18407 -4.89467 36012 ft 478 kts 283°
2026-05-04 14:38 51.19986 -4.99787 36012 ft 478 kts 283°
2026-05-04 14:39 51.21557 -5.10115 36013 ft 478 kts 283°
2026-05-04 14:39 51.23107 -5.20379 36015 ft 478 kts 283°
2026-05-04 14:40 51.25425 -5.35852 36016 ft 477 kts 283°
2026-05-04 14:40 51.26951 -5.46122 36019 ft 477 kts 283°
2026-05-04 14:41 51.28474 -5.56439 36018 ft 477 kts 283°
2026-05-04 14:42 51.31482 -5.77021 36024 ft 477 kts 283°
2026-05-04 14:42 51.32983 -5.87389 36025 ft 478 kts 283°
2026-05-04 14:43 51.34472 -5.97753 36031 ft 478 kts 283°
2026-05-04 14:43 51.35945 -6.08069 36033 ft 478 kts 283°
2026-05-04 14:44 51.37420 -6.18470 36032 ft 478 kts 283°
2026-05-04 14:44 51.38877 -6.28823 36034 ft 479 kts 283°
2026-05-04 14:45 51.40335 -6.39245 36027 ft 480 kts 284°
2026-05-04 14:45 51.41779 -6.49650 36035 ft 481 kts 284°
2026-05-04 14:46 51.43227 -6.60146 36043 ft 481 kts 284°
2026-05-04 14:46 51.44654 -6.70570 36043 ft 481 kts 283°
2026-05-04 14:47 51.46083 -6.81083 36045 ft 481 kts 284°
2026-05-04 14:47 51.47496 -6.91553 36045 ft 481 kts 284°
2026-05-04 14:48 51.48902 -7.02045 36051 ft 481 kts 284°
2026-05-04 14:48 51.49793 -7.07219 36154 ft 481 kts 291°
2026-05-04 14:48 51.51074 -7.12117 36330 ft 479 kts 299°
2026-05-04 14:49 51.52646 -7.16851 36563 ft 478 kts 301°
2026-05-04 14:49 51.54269 -7.21446 36750 ft 477 kts 302°
2026-05-04 14:49 51.55957 -7.26068 36978 ft 477 kts 303°
2026-05-04 14:49 51.57649 -7.30635 37268 ft 474 kts 303°
2026-05-04 14:50 51.59322 -7.35144 37500 ft 473 kts 303°
2026-05-04 14:50 51.61010 -7.39708 37728 ft 472 kts 303°
2026-05-04 14:50 51.62685 -7.44263 37946 ft 471 kts 302°
2026-05-04 14:50 51.64354 -7.48825 38047 ft 473 kts 302°
2026-05-04 14:51 51.67670 -7.57941 38059 ft 472 kts 302°
2026-05-04 14:51 51.70964 -7.67042 38058 ft 472 kts 302°
2026-05-04 14:52 51.74271 -7.76213 38059 ft 472 kts 302°
2026-05-04 14:52 51.77570 -7.85392 38050 ft 471 kts 302°
2026-05-04 14:53 51.80835 -7.94510 38058 ft 471 kts 302°
2026-05-04 14:53 51.84096 -8.03647 38055 ft 470 kts 302°
2026-05-04 14:54 51.87370 -8.12855 38063 ft 471 kts 302°
2026-05-04 14:54 51.90609 -8.21997 38062 ft 471 kts 302°
2026-05-04 14:55 51.93862 -8.31212 38066 ft 471 kts 302°
2026-05-04 14:55 51.97090 -8.40392 38066 ft 471 kts 302°
2026-05-04 14:56 52.00326 -8.49627 38065 ft 470 kts 302°
2026-05-04 14:56 52.03546 -8.58852 38070 ft 470 kts 302°
2026-05-04 14:57 52.06766 -8.68105 38077 ft 470 kts 302°
2026-05-04 14:57 52.09964 -8.77333 38080 ft 470 kts 302°
2026-05-04 14:58 52.13176 -8.86636 38079 ft 470 kts 302°
2026-05-04 14:58 52.16371 -8.95927 38086 ft 469 kts 302°
2026-05-04 14:59 52.19536 -9.05164 38085 ft 467 kts 302°
2026-05-04 15:00 52.24260 -9.19013 38098 ft 463 kts 302°
2026-05-04 15:00 52.27373 -9.28177 38100 ft 464 kts 302°
2026-05-04 15:01 52.32034 -9.41965 38124 ft 464 kts 302°
2026-05-04 15:01 52.35147 -9.51220 38122 ft 463 kts 302°
2026-05-04 15:02 52.38237 -9.60440 38115 ft 461 kts 302°
2026-05-04 15:02 52.41292 -9.69590 38121 ft 459 kts 302°
2026-05-04 15:03 52.44350 -9.78781 38130 ft 459 kts 301°
2026-05-04 15:03 52.47402 -9.87984 38126 ft 459 kts 301°
2026-05-04 15:04 52.50436 -9.97171 38130 ft 459 kts 301°
2026-05-04 15:04 52.53456 -10.06352 38129 ft 459 kts 301°
2026-05-04 15:05 52.56478 -10.15570 38134 ft 458 kts 301°
2026-05-04 15:05 52.59490 -10.24794 38132 ft 456 kts 301°
2026-05-04 15:06 52.62471 -10.33957 38126 ft 455 kts 301°
2026-05-04 15:07 52.66943 -10.47769 38133 ft 455 kts 300°
2026-05-04 15:07 52.69918 -10.56996 38135 ft 455 kts 300°
2026-05-04 15:08 52.72868 -10.66186 38136 ft 455 kts 300°
2026-05-04 15:08 52.75834 -10.75460 38138 ft 455 kts 300°
2026-05-04 15:09 52.78763 -10.84649 38135 ft 455 kts 300°
2026-05-04 15:09 52.81702 -10.93908 38153 ft 454 kts 300°
2026-05-04 15:10 52.86095 -11.07811 38157 ft 454 kts 300°
2026-05-04 15:11 52.90452 -11.21680 38153 ft 454 kts 299°
2026-05-04 15:11 52.93349 -11.30946 38151 ft 454 kts 299°
2026-05-04 15:12 52.96247 -11.40252 38151 ft 454 kts 299°
2026-05-04 15:12 52.99141 -11.49580 38150 ft 454 kts 299°
2026-05-04 15:13 53.02012 -11.58868 38150 ft 454 kts 299°
2026-05-04 15:13 53.04895 -11.68232 38151 ft 454 kts 299°
2026-05-04 15:14 53.07751 -11.77546 38148 ft 454 kts 299°
2026-05-04 15:14 53.10612 -11.86911 38153 ft 453 kts 298°
2026-05-04 15:15 53.13449 -11.96234 38155 ft 453 kts 298°
2026-05-04 15:15 53.16291 -12.05611 38153 ft 452 kts 298°
2026-05-04 15:16 53.20516 -12.19618 38159 ft 451 kts 298°
2026-05-04 15:17 53.24730 -12.33670 38156 ft 451 kts 298°
2026-05-04 15:17 53.28917 -12.47713 38156 ft 451 kts 297°
2026-05-04 15:18 53.31689 -12.57058 38160 ft 450 kts 297°
2026-05-04 15:19 53.35849 -12.71151 38162 ft 449 kts 297°
2026-05-04 15:19 53.39945 -12.85112 38159 ft 446 kts 296°
2026-05-04 15:20 53.42678 -12.94471 38166 ft 447 kts 296°
2026-05-04 15:20 53.44954 -13.02293 38161 ft 448 kts 296°
2026-05-04 15:21 53.48123 -13.13230 38167 ft 448 kts 296°
2026-05-04 15:22 53.52182 -13.27307 38166 ft 445 kts 295°
2026-05-04 15:22 53.55749 -13.39754 38171 ft 444 kts 295°
2026-05-04 15:23 53.58425 -13.49136 38168 ft 444 kts 295°
2026-05-04 15:23 53.61075 -13.58460 38167 ft 443 kts 295°
2026-05-04 15:24 53.66360 -13.77171 38169 ft 443 kts 295°
2026-05-04 15:25 53.69002 -13.86585 38170 ft 444 kts 295°
2026-05-04 15:26 53.72956 -14.00737 38169 ft 443 kts 294°
2026-05-04 15:26 53.76871 -14.14838 38175 ft 443 kts 294°
2026-05-04 15:27 53.80771 -14.28971 38173 ft 443 kts 294°
2026-05-04 15:28 53.84646 -14.43101 38172 ft 442 kts 294°
2026-05-04 15:29 53.88524 -14.57327 38170 ft 442 kts 294°
2026-05-04 15:30 53.97448 -14.90407 38177 ft 441 kts 294°
2026-05-04 15:31 54.01141 -15.04673 38176 ft 441 kts 291°
2026-05-04 15:32 54.06539 -15.29049 38181 ft 440 kts 290°
2026-05-04 15:34 54.11923 -15.53398 38181 ft 440 kts 290°
2026-05-04 15:34 54.15133 -15.68015 38188 ft 439 kts 290°
2026-05-04 15:35 54.18337 -15.82719 38192 ft 440 kts 290°
2026-05-04 15:36 54.21513 -15.97399 38196 ft 441 kts 290°
2026-05-04 15:36 54.23626 -16.07223 38191 ft 440 kts 290°
2026-05-04 15:37 54.25721 -16.17010 38188 ft 440 kts 290°
2026-05-04 15:37 54.27816 -16.26845 38193 ft 440 kts 290°
2026-05-04 15:38 54.29908 -16.36710 38195 ft 440 kts 289°
2026-05-04 15:38 54.31978 -16.46523 38194 ft 440 kts 289°
2026-05-04 15:39 54.34055 -16.56415 38192 ft 440 kts 289°
2026-05-04 15:40 54.37138 -16.71192 38203 ft 440 kts 289°
2026-05-04 15:40 54.39196 -16.81114 38197 ft 440 kts 289°
2026-05-04 15:41 54.41226 -16.90951 38200 ft 439 kts 289°
2026-05-04 15:41 54.43263 -17.00875 38201 ft 440 kts 289°
2026-05-04 15:42 54.45280 -17.10743 38201 ft 440 kts 289°
2026-05-04 15:42 54.47303 -17.20696 38206 ft 440 kts 289°
2026-05-04 15:43 54.49304 -17.30590 38207 ft 440 kts 289°
2026-05-04 15:43 54.51310 -17.40555 38205 ft 440 kts 289°
2026-05-04 15:44 54.53291 -17.50447 38211 ft 439 kts 289°
2026-05-04 15:44 54.55277 -17.60421 38212 ft 439 kts 289°
2026-05-04 15:45 54.57254 -17.70391 38218 ft 439 kts 289°
2026-05-04 15:45 54.59210 -17.80309 38216 ft 439 kts 289°
2026-05-04 15:46 54.61173 -17.90314 38213 ft 439 kts 288°
2026-05-04 15:46 54.63114 -18.00259 38218 ft 439 kts 288°
2026-05-04 15:47 54.65056 -18.10264 38217 ft 439 kts 288°
2026-05-04 15:47 54.66993 -18.20289 38221 ft 439 kts 288°
2026-05-04 15:48 54.68908 -18.30258 38224 ft 439 kts 288°
2026-05-04 15:48 54.71769 -18.45241 38227 ft 438 kts 288°
2026-05-04 15:49 54.73672 -18.55278 38227 ft 438 kts 288°
2026-05-04 15:49 54.75569 -18.65332 38227 ft 438 kts 288°
2026-05-04 15:50 54.77443 -18.75315 38226 ft 438 kts 288°
2026-05-04 15:50 54.79323 -18.85392 38233 ft 438 kts 288°
2026-05-04 15:51 54.81186 -18.95423 38239 ft 438 kts 288°
2026-05-04 15:51 54.83048 -19.05507 38237 ft 438 kts 288°
2026-05-04 15:52 54.84893 -19.15555 38235 ft 438 kts 288°
2026-05-04 15:52 54.86738 -19.25654 38243 ft 438 kts 287°
2026-05-04 15:53 54.88575 -19.35767 38238 ft 438 kts 287°
2026-05-04 15:53 54.90395 -19.45836 38237 ft 439 kts 287°
2026-05-04 15:54 54.92220 -19.55997 38242 ft 439 kts 287°
2026-05-04 15:54 54.94024 -19.66090 38239 ft 439 kts 287°
2026-05-04 15:55 54.95821 -19.76205 38256 ft 439 kts 287°
2026-05-04 15:55 54.97624 -19.86408 38249 ft 439 kts 287°
2026-05-04 15:56 54.99382 -19.96580 38246 ft 439 kts 284°
2026-05-04 15:56 55.00285 -20.07037 38247 ft 439 kts 276°
2026-05-04 15:57 55.00769 -20.17649 38254 ft 440 kts 274°
2026-05-04 15:57 55.01164 -20.28303 38255 ft 440 kts 274°
2026-05-04 15:58 55.01550 -20.38916 38254 ft 440 kts 274°
2026-05-04 15:58 55.01940 -20.49503 38251 ft 440 kts 274°
2026-05-04 15:59 55.02331 -20.60199 38258 ft 440 kts 274°
2026-05-04 15:59 55.02710 -20.70800 38257 ft 439 kts 274°
2026-05-04 16:00 55.03079 -20.81397 38270 ft 439 kts 274°
2026-05-04 16:00 55.03440 -20.92013 38268 ft 439 kts 274°
2026-05-04 16:01 55.03790 -21.02616 38268 ft 439 kts 274°
2026-05-04 16:01 55.04132 -21.13227 38269 ft 439 kts 274°
2026-05-04 16:02 55.04465 -21.23865 38269 ft 439 kts 274°
2026-05-04 16:03 55.04947 -21.39822 38278 ft 439 kts 273°
2026-05-04 16:03 55.05256 -21.50429 38274 ft 439 kts 273°
2026-05-04 16:04 55.05557 -21.61120 38281 ft 439 kts 273°
2026-05-04 16:04 55.05989 -21.77006 38284 ft 439 kts 273°
2026-05-04 16:05 55.06267 -21.87701 38284 ft 439 kts 273°
2026-05-04 16:06 55.06665 -22.03614 38284 ft 439 kts 273°
2026-05-04 16:07 55.07163 -22.24874 38290 ft 439 kts 272°
2026-05-04 16:08 55.07625 -22.46190 38296 ft 439 kts 272°
2026-05-04 16:09 55.08148 -22.72709 38294 ft 438 kts 272°
2026-05-04 16:10 55.08525 -22.93937 38292 ft 438 kts 272°
2026-05-04 16:11 55.08865 -23.15205 38292 ft 438 kts 272°
2026-05-04 16:12 55.09305 -23.47023 38305 ft 438 kts 272°
2026-05-04 16:13 55.09554 -23.68334 38307 ft 438 kts 271°
2026-05-04 16:14 55.09764 -23.89520 38300 ft 437 kts 271°
2026-05-04 16:16 55.09975 -24.16059 38314 ft 437 kts 271°
2026-05-04 16:17 55.10129 -24.42551 38317 ft 437 kts 271°
2026-05-04 16:18 55.10210 -24.63790 38319 ft 437 kts 271°
2026-05-04 16:19 55.10260 -24.90297 38319 ft 438 kts 270°
2026-05-04 16:20 55.10252 -25.16885 38325 ft 438 kts 270°
2026-05-04 16:22 55.10186 -25.43483 38327 ft 438 kts 270°
2026-05-04 16:23 55.10031 -25.75436 38327 ft 439 kts 270°
2026-05-04 16:25 55.09807 -26.05620 38330 ft 439 kts 269°
2026-05-04 16:26 55.09449 -26.41041 38335 ft 440 kts 269°
2026-05-04 16:28 55.09111 -26.67741 38333 ft 440 kts 269°
2026-05-04 16:29 55.08540 -27.05112 38344 ft 440 kts 269°
2026-05-04 16:31 55.08062 -27.31831 38341 ft 441 kts 268°
2026-05-04 16:32 55.07411 -27.63880 38344 ft 442 kts 268°
2026-05-04 16:33 55.06928 -27.85329 38346 ft 442 kts 268°
2026-05-04 16:34 55.06541 -28.01412 38346 ft 442 kts 268°
2026-05-04 16:35 55.05705 -28.33505 38347 ft 442 kts 268°
2026-05-04 16:36 55.05254 -28.49581 38351 ft 442 kts 268°
2026-05-04 16:37 55.04783 -28.65660 38348 ft 443 kts 268°
2026-05-04 16:38 55.04120 -28.87119 38349 ft 443 kts 267°
2026-05-04 16:39 55.03239 -29.13894 38349 ft 443 kts 267°
2026-05-04 16:40 55.02491 -29.35360 38352 ft 443 kts 267°
2026-05-04 16:41 55.01522 -29.61646 38355 ft 443 kts 267°
2026-05-04 16:43 55.00478 -29.88388 38355 ft 444 kts 267°
2026-05-04 16:43 55.00221 -30.04479 38354 ft 443 kts 273°
2026-05-04 16:45 55.01410 -30.35543 38352 ft 443 kts 274°
2026-05-04 16:46 55.02410 -30.62326 38357 ft 443 kts 274°
2026-05-04 16:47 55.03162 -30.83787 38359 ft 443 kts 274°
2026-05-04 16:48 55.03876 -31.05239 38361 ft 444 kts 274°
2026-05-04 16:49 55.04550 -31.26641 38362 ft 436 kts 274°
2026-05-04 16:50 55.05176 -31.47663 38363 ft 434 kts 274°
2026-05-04 16:51 55.05622 -31.63428 38363 ft 434 kts 274°
2026-05-04 16:52 55.06184 -31.84449 38366 ft 434 kts 274°
2026-05-04 16:53 55.06582 -32.00251 38368 ft 435 kts 274°
2026-05-04 16:54 55.07083 -32.21350 38365 ft 435 kts 274°
2026-05-04 16:55 55.07763 -32.52925 38366 ft 435 kts 274°
2026-05-04 16:56 55.08268 -32.79261 38368 ft 435 kts 273°
2026-05-04 16:57 55.08544 -32.95096 38365 ft 435 kts 273°
2026-05-04 16:58 55.08879 -33.16156 38364 ft 434 kts 273°
2026-05-04 17:00 55.09314 -33.47743 38362 ft 434 kts 273°
2026-05-04 17:01 55.09614 -33.74067 38353 ft 433 kts 273°
2026-05-04 17:02 55.09812 -33.95012 38360 ft 432 kts 273°
2026-05-04 17:03 55.09937 -34.10719 38359 ft 432 kts 273°
2026-05-04 17:03 55.10042 -34.26448 38356 ft 432 kts 272°
2026-05-04 17:04 55.10149 -34.47352 38361 ft 429 kts 272°
2026-05-04 17:05 55.10222 -34.68163 38344 ft 429 kts 272°
2026-05-04 17:06 55.10252 -34.83756 38348 ft 428 kts 272°
2026-05-04 17:07 55.10263 -34.97623 38351 ft 428 kts 272°
2026-05-04 17:07 55.10259 -35.09708 38352 ft 426 kts 272°
2026-05-04 17:08 55.10236 -35.25184 38351 ft 425 kts 272°
2026-05-04 17:09 55.10211 -35.35522 38346 ft 425 kts 272°
2026-05-04 17:09 55.10177 -35.45784 38350 ft 425 kts 272°
2026-05-04 17:10 55.10053 -35.71567 38337 ft 425 kts 272°
2026-05-04 17:11 55.09988 -35.81918 38335 ft 424 kts 272°
2026-05-04 17:12 55.09875 -35.97294 38333 ft 424 kts 272°
2026-05-04 17:13 55.09643 -36.23047 38331 ft 424 kts 272°
2026-05-04 17:14 55.09418 -36.43543 38331 ft 422 kts 272°
2026-05-04 17:15 55.09228 -36.58862 38330 ft 421 kts 272°
2026-05-04 17:16 55.08946 -36.79262 38322 ft 420 kts 272°
2026-05-04 17:17 55.08631 -36.99583 38290 ft 420 kts 272°
2026-05-04 17:18 55.08281 -37.19869 38313 ft 416 kts 272°
2026-05-04 17:19 55.07934 -37.38373 38312 ft 416 kts 272°
2026-05-04 17:20 55.07488 -37.60205 38304 ft 416 kts 272°
2026-05-04 17:20 55.07156 -37.75280 38301 ft 412 kts 272°
2026-05-04 17:21 55.06731 -37.93501 38293 ft 410 kts 272°
2026-05-04 17:22 55.06487 -38.03485 38294 ft 410 kts 272°
2026-05-04 17:23 55.05976 -38.23381 38286 ft 410 kts 272°
2026-05-04 17:24 55.05572 -38.38274 38281 ft 410 kts 272°
2026-05-04 17:25 55.05006 -38.58050 38273 ft 409 kts 271°
2026-05-04 17:26 55.04408 -38.77921 38273 ft 411 kts 271°
2026-05-04 17:27 55.03610 -39.02780 38251 ft 411 kts 271°
2026-05-04 17:28 55.02935 -39.22729 38257 ft 412 kts 270°
2026-05-04 17:29 55.01858 -39.52654 38245 ft 413 kts 270°
2026-05-04 17:31 55.00909 -39.77454 38235 ft 405 kts 269°
2026-05-04 17:32 54.99913 -40.01810 38227 ft 404 kts 268°
2026-05-04 17:33 54.98787 -40.21295 38225 ft 404 kts 267°
2026-05-04 17:34 54.97616 -40.40678 38205 ft 402 kts 267°
2026-05-04 17:35 54.96137 -40.64798 38199 ft 402 kts 266°
2026-05-04 17:36 54.95528 -40.74497 38195 ft 402 kts 266°
2026-05-04 17:36 54.94914 -40.84154 38194 ft 403 kts 266°
2026-05-04 17:37 54.94289 -40.93857 38183 ft 403 kts 266°
2026-05-04 17:37 54.93659 -41.03512 38188 ft 404 kts 266°
2026-05-04 17:38 54.93019 -41.13201 38176 ft 405 kts 266°
2026-05-04 17:38 54.92367 -41.22957 38175 ft 405 kts 266°
2026-05-04 17:39 54.91377 -41.37523 38163 ft 405 kts 266°
2026-05-04 17:39 54.90703 -41.47296 38163 ft 405 kts 265°
2026-05-04 17:40 54.90027 -41.56993 38168 ft 406 kts 265°
2026-05-04 17:40 54.89342 -41.66698 38144 ft 405 kts 264°
2026-05-04 17:41 54.88653 -41.76340 38146 ft 402 kts 264°
2026-05-04 17:41 54.87961 -41.85924 38144 ft 401 kts 264°
2026-05-04 17:42 54.87258 -41.95558 38145 ft 401 kts 264°
2026-05-04 17:42 54.86550 -42.05140 38139 ft 401 kts 264°
2026-05-04 17:43 54.85831 -42.14772 38131 ft 401 kts 264°
2026-05-04 17:43 54.85107 -42.24373 38131 ft 402 kts 264°
2026-05-04 17:44 54.84375 -42.33962 38128 ft 402 kts 264°
2026-05-04 17:44 54.83638 -42.43526 38119 ft 402 kts 264°
2026-05-04 17:45 54.82887 -42.53163 38099 ft 402 kts 264°
2026-05-04 17:45 54.82134 -42.62727 38107 ft 402 kts 263°
2026-05-04 17:46 54.81371 -42.72309 38107 ft 402 kts 263°
2026-05-04 17:46 54.80597 -42.81944 38082 ft 402 kts 263°
2026-05-04 17:47 54.79820 -42.91514 38082 ft 402 kts 262°
2026-05-04 17:47 54.79033 -43.01117 38084 ft 404 kts 262°
2026-05-04 17:48 54.78230 -43.10803 38082 ft 404 kts 262°
2026-05-04 17:48 54.77426 -43.20403 38076 ft 404 kts 262°
2026-05-04 17:49 54.76612 -43.30038 38064 ft 404 kts 262°
2026-05-04 17:49 54.75787 -43.39711 38054 ft 405 kts 262°
2026-05-04 17:50 54.74954 -43.49386 38122 ft 412 kts 262°
2026-05-04 17:50 54.74533 -43.54241 38311 ft 412 kts 261°
2026-05-04 17:50 54.74105 -43.59153 38666 ft 409 kts 261°
2026-05-04 17:51 54.73679 -43.64009 38914 ft 407 kts 261°
2026-05-04 17:51 54.73252 -43.68856 39036 ft 408 kts 261°
2026-05-04 17:51 54.72821 -43.73727 39142 ft 409 kts 261°
2026-05-04 17:51 54.72393 -43.78546 39259 ft 410 kts 261°
2026-05-04 17:52 54.71954 -43.83450 39385 ft 411 kts 261°
2026-05-04 17:52 54.71515 -43.88349 39512 ft 412 kts 261°
2026-05-04 17:52 54.71078 -43.93196 39617 ft 413 kts 261°
2026-05-04 17:52 54.70633 -43.98113 39738 ft 413 kts 260°
2026-05-04 17:53 54.70184 -44.03049 39863 ft 414 kts 260°
2026-05-04 17:53 54.69733 -44.07981 39968 ft 415 kts 260°
2026-05-04 17:53 54.68825 -44.17846 40000 ft 421 kts 259°
2026-05-04 17:54 54.67889 -44.27917 40001 ft 422 kts 259°
2026-05-04 17:54 54.66956 -44.37872 40011 ft 421 kts 259°
2026-05-04 17:55 54.66008 -44.47894 39982 ft 423 kts 259°
2026-05-04 17:55 54.65053 -44.57886 39982 ft 423 kts 259°
2026-05-04 17:56 54.64085 -44.67933 39971 ft 423 kts 259°
2026-05-04 17:56 54.63115 -44.77910 39966 ft 423 kts 259°
2026-05-04 17:57 54.62129 -44.87962 39966 ft 425 kts 258°
2026-05-04 17:57 54.61135 -44.97993 39951 ft 425 kts 258°
2026-05-04 17:58 54.60130 -45.08064 39950 ft 425 kts 258°
2026-05-04 17:58 54.59122 -45.18062 39933 ft 425 kts 258°
2026-05-04 17:59 54.58099 -45.28133 39930 ft 425 kts 257°
2026-05-04 18:00 54.56552 -45.43197 39925 ft 427 kts 257°
2026-05-04 18:00 54.55505 -45.53271 39911 ft 430 kts 256°
2026-05-04 18:01 54.54444 -45.63400 39908 ft 431 kts 256°
2026-05-04 18:01 54.53369 -45.73584 39895 ft 431 kts 256°
2026-05-04 18:02 54.51750 -45.88755 39894 ft 431 kts 256°
2026-05-04 18:02 54.50660 -45.98869 39873 ft 431 kts 256°
2026-05-04 18:03 54.49554 -46.09037 39879 ft 431 kts 255°
2026-05-04 18:03 54.48442 -46.19177 39862 ft 433 kts 255°
2026-05-04 18:04 54.47314 -46.29375 39862 ft 433 kts 255°
2026-05-04 18:05 54.45607 -46.44662 39848 ft 436 kts 255°
2026-05-04 18:05 54.44456 -46.54870 39849 ft 436 kts 255°
2026-05-04 18:06 54.42714 -46.70172 39833 ft 437 kts 254°
2026-05-04 18:06 54.41530 -46.80450 39829 ft 438 kts 254°
2026-05-04 18:07 54.40345 -46.90670 39805 ft 439 kts 254°
2026-05-04 18:07 54.39142 -47.00967 39810 ft 438 kts 254°
2026-05-04 18:08 54.37935 -47.11211 39803 ft 438 kts 254°
2026-05-04 18:08 54.36726 -47.21401 39792 ft 438 kts 254°
2026-05-04 18:09 54.34255 -47.41960 39771 ft 442 kts 253°
2026-05-04 18:10 54.33000 -47.52294 39765 ft 442 kts 252°
2026-05-04 18:10 54.31745 -47.62555 39766 ft 442 kts 252°
2026-05-04 18:11 54.30478 -47.72830 39752 ft 442 kts 252°
2026-05-04 18:11 54.29199 -47.83122 39747 ft 442 kts 252°
2026-05-04 18:12 54.27916 -47.93371 39736 ft 442 kts 252°
2026-05-04 18:12 54.26614 -48.03690 39736 ft 443 kts 251°
2026-05-04 18:13 54.25303 -48.14010 39729 ft 443 kts 251°
2026-05-04 18:14 54.23323 -48.29448 39727 ft 445 kts 251°
2026-05-04 18:14 54.21988 -48.39759 39708 ft 446 kts 251°
2026-05-04 18:15 54.19282 -48.60459 39696 ft 446 kts 251°
2026-05-04 18:16 54.17921 -48.70754 39693 ft 446 kts 251°
2026-05-04 18:16 54.16540 -48.81122 39696 ft 446 kts 251°
2026-05-04 18:17 54.14485 -48.96442 39669 ft 440 kts 251°
2026-05-04 18:18 54.12415 -49.11682 39681 ft 441 kts 250°
2026-05-04 18:18 54.11013 -49.21903 39664 ft 443 kts 250°
2026-05-04 18:19 54.09134 -49.35514 39650 ft 444 kts 250°
2026-05-04 18:19 54.07474 -49.47447 39650 ft 444 kts 250°
2026-05-04 18:20 54.06277 -49.55992 39650 ft 444 kts 250°
2026-05-04 18:20 54.04837 -49.66211 39641 ft 444 kts 250°
2026-05-04 18:21 54.03391 -49.76396 39644 ft 445 kts 249°
2026-05-04 18:21 54.01925 -49.86640 39629 ft 448 kts 249°
2026-05-04 18:22 54.00434 -49.96949 39631 ft 447 kts 248°
2026-05-04 18:22 53.98379 -50.06757 39627 ft 441 kts 242°
2026-05-04 18:23 53.96062 -50.16480 39614 ft 444 kts 241°
2026-05-04 18:23 53.93695 -50.26143 39613 ft 444 kts 241°
2026-05-04 18:24 53.91304 -50.35883 39607 ft 447 kts 241°
2026-05-04 18:24 53.88917 -50.45608 39605 ft 449 kts 241°
2026-05-04 18:25 53.86524 -50.55339 39591 ft 449 kts 241°
2026-05-04 18:25 53.84103 -50.65144 39590 ft 449 kts 241°
2026-05-04 18:26 53.81701 -50.74825 39584 ft 449 kts 241°
2026-05-04 18:26 53.79258 -50.84617 39585 ft 451 kts 241°
2026-05-04 18:27 53.76812 -50.94379 39573 ft 453 kts 241°
2026-05-04 18:27 53.74346 -51.04184 39565 ft 453 kts 241°
2026-05-04 18:28 53.71878 -51.13957 39554 ft 453 kts 241°
2026-05-04 18:28 53.69388 -51.23769 39552 ft 453 kts 241°
2026-05-04 18:29 53.66904 -51.33513 39554 ft 456 kts 241°
2026-05-04 18:29 53.64379 -51.43366 39546 ft 460 kts 241°
2026-05-04 18:30 53.60555 -51.58226 39536 ft 460 kts 241°
2026-05-04 18:31 53.58008 -51.68071 39523 ft 460 kts 241°
2026-05-04 18:31 53.55452 -51.77903 39552 ft 460 kts 241°
2026-05-04 18:32 53.52882 -51.87739 39517 ft 462 kts 241°
2026-05-04 18:32 53.50281 -51.97654 39507 ft 463 kts 241°
2026-05-04 18:33 53.47680 -52.07534 39492 ft 463 kts 241°
2026-05-04 18:33 53.45071 -52.17400 39493 ft 463 kts 241°
2026-05-04 18:34 53.42450 -52.27262 39515 ft 463 kts 240°
2026-05-04 18:34 53.39808 -52.37163 39486 ft 465 kts 240°
2026-05-04 18:35 53.37157 -52.47051 39471 ft 466 kts 240°
2026-05-04 18:35 53.34496 -52.56934 39470 ft 467 kts 240°
2026-05-04 18:36 53.31823 -52.66825 39459 ft 467 kts 240°
2026-05-04 18:36 53.29126 -52.76758 39479 ft 468 kts 240°
2026-05-04 18:37 53.26443 -52.86600 39442 ft 468 kts 240°
2026-05-04 18:37 53.23725 -52.96523 39445 ft 468 kts 240°
2026-05-04 18:38 53.21024 -53.06345 39430 ft 468 kts 240°
2026-05-04 18:38 53.18287 -53.16252 39428 ft 468 kts 240°
2026-05-04 18:39 53.15564 -53.26070 39430 ft 468 kts 240°
2026-05-04 18:39 53.12835 -53.35867 39412 ft 468 kts 240°
2026-05-04 18:40 53.10082 -53.45706 39412 ft 468 kts 239°
2026-05-04 18:40 53.07331 -53.55500 39420 ft 468 kts 239°
2026-05-04 18:41 53.04556 -53.65338 39406 ft 469 kts 239°
2026-05-04 18:41 53.01787 -53.75111 39396 ft 470 kts 239°
2026-05-04 18:42 52.98991 -53.84938 39380 ft 469 kts 239°
2026-05-04 18:42 52.96204 -53.94696 39380 ft 469 kts 239°
2026-05-04 18:43 52.93387 -54.04516 39369 ft 469 kts 239°
2026-05-04 18:43 52.90587 -54.14237 39371 ft 469 kts 239°
2026-05-04 18:44 52.87760 -54.24010 39363 ft 469 kts 239°
2026-05-04 18:44 52.84941 -54.33714 39358 ft 469 kts 239°
2026-05-04 18:45 52.82112 -54.43417 39343 ft 469 kts 239°
2026-05-04 18:45 52.79274 -54.53108 39343 ft 469 kts 239°
2026-05-04 18:46 52.76425 -54.62797 39344 ft 469 kts 239°
2026-05-04 18:46 52.73569 -54.72471 39329 ft 470 kts 239°
2026-05-04 18:47 52.70688 -54.82187 39326 ft 471 kts 239°
2026-05-04 18:47 52.67811 -54.91853 39326 ft 471 kts 238°
2026-05-04 18:48 52.64905 -55.01579 39313 ft 471 kts 238°
2026-05-04 18:48 52.62010 -55.11227 39326 ft 471 kts 238°
2026-05-04 18:49 52.59110 -55.20854 39296 ft 471 kts 239°
2026-05-04 18:49 52.56195 -55.30489 39283 ft 472 kts 238°
2026-05-04 18:50 52.53256 -55.40166 39287 ft 472 kts 238°
2026-05-04 18:50 52.50323 -55.49787 39268 ft 472 kts 238°
2026-05-04 18:51 52.47389 -55.59370 39282 ft 472 kts 239°
2026-05-04 18:51 52.44432 -55.68991 39259 ft 472 kts 238°
2026-05-04 18:52 52.41476 -55.78569 39255 ft 473 kts 238°
2026-05-04 18:52 52.38407 -55.88124 39250 ft 472 kts 236°
2026-05-04 18:53 52.35162 -55.97391 39250 ft 471 kts 235°
2026-05-04 18:53 52.31860 -56.06660 39259 ft 471 kts 235°
2026-05-04 18:54 52.28587 -56.15881 39252 ft 472 kts 235°
2026-05-04 18:54 52.25294 -56.25183 39247 ft 472 kts 235°
2026-05-04 18:55 52.22024 -56.34401 39250 ft 472 kts 235°
2026-05-04 18:55 52.17082 -56.48267 39243 ft 472 kts 235°
2026-05-04 18:56 52.13774 -56.57503 39234 ft 471 kts 235°
2026-05-04 18:56 52.10474 -56.66682 39234 ft 471 kts 235°
2026-05-04 18:57 52.07142 -56.75916 39223 ft 471 kts 235°
2026-05-04 18:57 52.03822 -56.85085 39229 ft 471 kts 235°
2026-05-04 18:58 52.00507 -56.94205 39219 ft 469 kts 236°
2026-05-04 18:58 51.97196 -57.03285 39214 ft 467 kts 236°
2026-05-04 18:59 51.93885 -57.12328 39214 ft 467 kts 236°
2026-05-04 18:59 51.90570 -57.21349 39211 ft 467 kts 236°
2026-05-04 19:00 51.87218 -57.30439 39222 ft 468 kts 236°
2026-05-04 19:00 51.83885 -57.39447 39213 ft 468 kts 236°
2026-05-04 19:01 51.80545 -57.48443 39211 ft 468 kts 236°
2026-05-04 19:01 51.77201 -57.57416 39206 ft 468 kts 236°
2026-05-04 19:02 51.73844 -57.66394 39206 ft 468 kts 236°
2026-05-04 19:02 51.70481 -57.75356 39208 ft 467 kts 236°
2026-05-04 19:03 51.67122 -57.84276 39206 ft 466 kts 236°
2026-05-04 19:03 51.63749 -57.93202 39206 ft 466 kts 236°
2026-05-04 19:04 51.60371 -58.02108 39210 ft 466 kts 236°
2026-05-04 19:04 51.56992 -58.10988 39205 ft 467 kts 236°
2026-05-04 19:05 51.53594 -58.19885 39205 ft 468 kts 236°
2026-05-04 19:05 51.50177 -58.28802 39204 ft 468 kts 235°
2026-05-04 19:06 51.46766 -58.37672 39207 ft 467 kts 235°
2026-05-04 19:06 51.43357 -58.46508 39207 ft 467 kts 235°
2026-05-04 19:07 51.39929 -58.55360 39209 ft 467 kts 236°
2026-05-04 19:07 51.36503 -58.64179 39208 ft 467 kts 235°
2026-05-04 19:08 51.33075 -58.72972 39206 ft 467 kts 235°
2026-05-04 19:08 51.29636 -58.81763 39203 ft 467 kts 235°
2026-05-04 19:09 51.26172 -58.90589 39201 ft 467 kts 235°
2026-05-04 19:09 51.22728 -58.99332 39197 ft 467 kts 235°
2026-05-04 19:10 51.19275 -59.08070 39207 ft 467 kts 235°
2026-05-04 19:10 51.15808 -59.16812 39197 ft 467 kts 235°
2026-05-04 19:11 51.12337 -59.25536 39197 ft 468 kts 235°
2026-05-04 19:11 51.08840 -59.34294 39198 ft 467 kts 235°
2026-05-04 19:12 51.03616 -59.47326 39198 ft 466 kts 235°
2026-05-04 19:13 51.00138 -59.55964 39194 ft 466 kts 235°
2026-05-04 19:13 50.96642 -59.64620 39194 ft 466 kts 235°
2026-05-04 19:14 50.93132 -59.73279 39195 ft 465 kts 235°
2026-05-04 19:14 50.89644 -59.81859 39194 ft 464 kts 235°
2026-05-04 19:15 50.86157 -59.90405 39203 ft 464 kts 235°
2026-05-04 19:15 50.82651 -59.98969 39202 ft 464 kts 235°
2026-05-04 19:16 50.79126 -60.07551 39212 ft 464 kts 235°
2026-05-04 19:16 50.75614 -60.16075 39209 ft 463 kts 235°
2026-05-04 19:17 50.72085 -60.24614 39212 ft 463 kts 235°
2026-05-04 19:17 50.68573 -60.33083 39212 ft 463 kts 234°
2026-05-04 19:18 50.65046 -60.41559 39220 ft 463 kts 234°
2026-05-04 19:18 50.61515 -60.50020 39219 ft 463 kts 235°
2026-05-04 19:19 50.57979 -60.58462 39223 ft 462 kts 234°
2026-05-04 19:19 50.54422 -60.66929 39233 ft 462 kts 234°
2026-05-04 19:20 50.50890 -60.75308 39230 ft 462 kts 234°
2026-05-04 19:20 50.47345 -60.83692 39240 ft 462 kts 234°
2026-05-04 19:21 50.43782 -60.92092 39238 ft 461 kts 234°
2026-05-04 19:21 50.40237 -61.00422 39242 ft 460 kts 234°
2026-05-04 19:22 50.36684 -61.08745 39239 ft 460 kts 234°
2026-05-04 19:22 50.33714 -61.15682 39241 ft 461 kts 234°
2026-05-04 19:23 50.30128 -61.24034 39241 ft 461 kts 234°
2026-05-04 19:23 50.26553 -61.32333 39239 ft 460 kts 234°
2026-05-04 19:24 50.22984 -61.40592 39236 ft 459 kts 234°
2026-05-04 19:24 50.19406 -61.48847 39235 ft 459 kts 234°
2026-05-04 19:25 50.15832 -61.57067 39242 ft 459 kts 234°
2026-05-04 19:25 50.12235 -61.65314 39236 ft 456 kts 234°
2026-05-04 19:26 50.08684 -61.73430 39236 ft 455 kts 234°
2026-05-04 19:26 50.05111 -61.81571 39239 ft 455 kts 234°
2026-05-04 19:27 50.01533 -61.89697 39289 ft 455 kts 234°